Current weather by "City, St" or "zip code"  
 

Current Conditions: San Luis Obispo, San Luis Obispo County-Mc Chesney Field, CA

Fair


50.0 F

Last Updated on May 21 2022, 12:56 am PDT
Humidity: 80%
Wind Speed: SE 4.6 mph
Barometer 29.88 in
Dewpoint: 44.1 F
Visibility: 9.00 mi
Precip: --
Heat Index: NA
Wind Chill: 48 F
Current conditions at:

San Luis Obispo, San Luis Obispo County-Mc Chesney Field, CA (KSBP)

Lat: 35.23611 Lon: 120.63611

Local Radar Image active severe weather and emergency alerts image image weather storm and storm spotter reports image weather observation monitoring service image
Local
Radar
Active
Alerts
Storm Reports Obs
Monitoring

Sign-up For Email & Text Message Weather Alert Notification Services



Advertise Here

Observation History for San Luis Obispo, San Luis Obispo County-Mc Chesney Field, CA


Time Wind
(mph)
Vis
(mi)
Weather Precip (in) Temperature (F) Relative
Humidity
Wind
Chill
(F)
Heat
Index
(F)
Pressure
Air Dwpt altimeter
(in)
sea level
(mb)
Rmks
12:56 am PDT SE 4.6 9.00 Fair -- 50.0 44.1 80% 48 NA 29.88 1011.8
11:56 pm PDT E 5.8 9.00 Fair -- 51.0 45.0 80% 49 NA 29.89 1011.9
10:56 pm PDT SE 4.6 9.00 Fair -- 52.0 45.0 77% 51 NA 29.88 1011.6
9:56 pm PDT SE 5.8 9.00 Fair -- 52.0 46.0 80% 50 NA 29.87 1011.3
8:56 pm PDT SE 6.9 9.00 Fair -- 53.0 46.0 77% 51 NA 29.85 1010.8
7:56 pm PDT S 4.6 8.00 Fair -- 55.0 46.9 74% 54 NA 29.83 1010.2
6:56 pm PDT NW 6.9 9.00 Fair -- 60.0 46.9 62% 59 NA 29.82 1009.6
5:56 pm PDT 3.5 10.00 Fair -- 67.0 46.0 47% NA NA 29.80 1009.2
4:56 pm PDT S 10.4 10.00 Fair -- 69.0 48.0 47% NA NA 29.79 1008.7
2:56 pm PDT SW 12.7 10.00 Fair -- 69.0 50.0 51% NA NA 29.80 1008.8
1:56 pm PDT SW 12.7 10.00 Fair -- 69.0 50.0 51% NA NA 29.79 1008.7
12:56 pm PDT SW 10.4 10.00 Fair -- 68.0 50.0 53% NA NA 29.79 1008.8
11:56 am PDT SW 9.2 10.00 Fair -- 66.0 50.0 56% NA NA 29.80 1008.9
8:56 am PDT 4.6 10.00 Partly Cloudy -- 59.0 50.0 72% 59 NA 29.81 1009.2
7:56 am PDT SE 3.5 10.00 Overcast -- 55.0 48.9 80% NA NA 29.81 1009.4
6:56 am PDT SE 5.8 7.00 A Few Clouds -- 50.0 44.1 80% 48 NA 29.79 1008.8
4:56 am PDT SE 5.8 7.00 A Few Clouds -- 48.0 43.0 83% 45 NA 29.78 1008.2
2:56 am PDT SE 3.5 7.00 Fair -- 50.0 44.1 80% NA NA 29.78 1008.3
1:56 am PDT N 0.0 7.00 Fair -- 52.0 45.0 77% NA NA 29.79 1008.6
12:56 am PDT SE 6.9 7.00 Fair -- 52.0 45.0 77% 50 NA 29.79 1008.4

Regional Weather Observation


Paso Robles Municipal Airport, CA (KPRB)

Fair
50.0 F

Oceano County Airport, CA (KL52)

Fog/Mist
45.0 F

Santa Maria Public Airport/Capt G Allan Hancock Field, CA (KSMX)

Fair
49.0 F

Lompoc, Vandenberg Air Force Base, CA (KVBG)

Fair
46.0 F

Lompoc, Lompoc Airport, CA (KLPC)

Fair
48.0 F

Santa Ynez, Santa Ynez Airport, CA (KIZA)

Fog/Mist
50.0 F

Advertise Here


Advertise Here